Weather History for Brooksville, FL

Change the Weather History Date:

Wednesday, August 27, 2014

  Actual Average Record
Temperature  
Mean Temperature 82 °F -  
Max Temperature 93 °F 88 °F 95 °F (1998)
Min Temperature 73 °F 69 °F 64 °F (1997)
Cooling Degree Days 17    
Growing Degree Days 32 (Base 50)    
Moisture  
Dew Point 70 °F    
Average Humidity 70    
Maximum Humidity 93    
Minimum Humidity 44    
Precipitation  
Precipitation 0.00 in - - ()
Sea Level Pressure  
Sea Level Pressure 29.98 in    
Wind  
Wind Speed 6 mph (NE)    
Max Wind Speed 12 mph    
Max Gust Speed -    
Visibility 10 miles    
Events      
Averages and records for this station are not official NWS values.
T = Trace of Precipitation, MM = Missing Value Source: NWS Daily Summary

Daily Weather History Graph

Daily Weather History Graph

Search for Another Location

Airport:

Trip Planner

Search our weather history database for the weather conditions in past years. The results will help you decide how hot, cold, wet, or windy it might be!

Date:

Astronomy

Aug. 27, 2014 Rise Set
Actual Time 7:05 AM EDT 7:56 PM EDT
Civil Twilight 6:41 AM EDT 8:20 PM EDT
Nautical Twilight 6:12 AM EDT 8:49 PM EDT
Astronomical Twilight 5:43 AM EDT 9:18 PM EDT
Moon 8:47 AM EDT (8/27) 9:03 PM EDT (8/27)
Length of Visible Light 13h 39m
Length of Day
12h 51m
Waxing Crescent, 4% of the Moon is Illuminated
Aug 27
Waxing Crescent
Sep 2
First Quarter
Sep 8
Full
Sep 15
Last Quarter
Sep 24
New

Hourly Weather History & Observations

Time (EDT) Temp. Heat Index Dew Point Humidity Pressure Visibility Wind Dir Wind Speed Gust Speed Precip Events Conditions
12:53 AM 75.9 °F - 71.1 °F 85% 29.97 in 10.0 mi NNE 6.9 mph - N/A   Mostly Cloudy
1:53 AM 75.9 °F - 72.0 °F 87% 29.96 in 10.0 mi NNE 4.6 mph - N/A   Overcast
2:53 AM 75.0 °F - 72.0 °F 90% 29.96 in 10.0 mi NNE 3.5 mph - N/A   Partly Cloudy
3:53 AM 73.9 °F - 71.1 °F 91% 29.95 in 10.0 mi NNE 4.6 mph - N/A   Clear
4:53 AM 73.9 °F - 71.1 °F 91% 29.94 in 10.0 mi NE 4.6 mph - N/A   Clear
5:53 AM 73.0 °F - 71.1 °F 93% 29.96 in 10.0 mi Calm Calm - N/A   Mostly Cloudy
6:53 AM 73.0 °F - 71.1 °F 93% 29.98 in 10.0 mi Calm Calm - N/A   Partly Cloudy
7:53 AM 75.0 °F - 72.0 °F 90% 29.99 in 10.0 mi NNE 4.6 mph - N/A   Overcast
8:53 AM 78.1 °F - 72.0 °F 81% 30.00 in 10.0 mi NE 8.1 mph - N/A   Overcast
9:53 AM 82.9 °F 88.0 °F 72.0 °F 69% 30.01 in 10.0 mi ENE 9.2 mph - N/A   Clear
10:53 AM 84.9 °F 90.1 °F 71.1 °F 63% 30.01 in 10.0 mi ENE 8.1 mph - N/A   Clear
11:53 AM 86.0 °F 90.7 °F 70.0 °F 59% 30.01 in 10.0 mi Variable 5.8 mph - N/A   Partly Cloudy
12:53 PM 89.1 °F 93.7 °F 69.1 °F 52% 30.00 in 10.0 mi ENE 6.9 mph - N/A   Partly Cloudy
1:53 PM 89.1 °F 92.1 °F 66.9 °F 48% 29.99 in 10.0 mi ENE 6.9 mph - N/A   Partly Cloudy
3:53 PM 91.9 °F 95.9 °F 68.0 °F 45% 29.95 in 10.0 mi NNE 6.9 mph - N/A   Partly Cloudy
4:53 PM 91.9 °F 95.4 °F 66.9 °F 44% 29.94 in 10.0 mi North 5.8 mph - N/A   Clear
5:53 PM 91.0 °F 93.8 °F 66.0 °F 44% 29.94 in 10.0 mi North 4.6 mph - N/A   Clear
6:53 PM 89.1 °F 91.0 °F 64.9 °F 45% 29.94 in 10.0 mi NE 9.2 mph - N/A   Clear
7:53 PM 84.0 °F 86.5 °F 66.9 °F 56% 29.95 in 10.0 mi NNE 4.6 mph - N/A   Clear
8:53 PM 81.0 °F 84.4 °F 70.0 °F 69% 29.97 in 10.0 mi NE 5.8 mph - N/A   Overcast
9:53 PM 81.0 °F 84.4 °F 70.0 °F 69% 30.00 in 10.0 mi East 11.5 mph - N/A   Mostly Cloudy
10:53 PM 79.0 °F - 70.0 °F 74% 30.01 in 10.0 mi East 9.2 mph - N/A   Clear
11:53 PM 75.9 °F - 70.0 °F 82% 30.01 in 10.0 mi East 5.8 mph - N/A   Clear